Weather at Fisher's Landing Resort Airstrip [CLOSED]

Public forecast

Using degrees Fahrenheit for public forecast. Weather courtesy of forecast.io.

Closest aviation weather report (METAR) to Fisher's Landing Resort Airstrip

Closest report is Yuma MCAS/Yuma International Airport, 20.5 nm (38.0 km) SSW. Retrieved 2020/10/28 15:57 UTC (52 minutes ago):

KNYL 281557Z 03006KT 7SM CLR 13/M08 A3010 RMK AO2 SLP193 T01331078

Closest aviation forecast (TAF) to Fisher's Landing Resort Airstrip

Forecast is more than 12 hours old.

Closest forecast is Yuma MCAS/Yuma International Airport, 20.5 nm (38.0 km) SSW. Retrieved 2014/04/27 15:15 UTC (7 years ago):

TAF TAF COR KNYL 271500Z 2715/2815 VRB06KT 9999 FEW250 QNH2989INS BECMG 2716/2718 26007KT QNH2978INS BECMG 2806/2808 VRB05KT QNH2981INS AUTOMATED SENSOR METWATCH 2715 TIL 2815 TX22/2723Z TN10/2813Z COR 1545